Location: Clanezzo
(45.7500°N, 9.6000°E)
Time: 06:26:45
(UTC+00:00)

Gbstr 26 Del rocket - Pass Details

Date: 30 September 2021
Orbit: 492 x 1263 km, 51.8° (Epoch: 20 October)

Event Time Altitude Azimuth Distance (km) Brightness Sun altitude
Rises 19:04:20 0° 240° (WSW) 3,790 7.7 -21.6°
Reaches altitude 10° 19:06:51 10° 241° (WSW) 2,933 7.0 -22.0°
Maximum altitude 19:14:11 88° 330° (NNW) 1,211 4.4 -23.2°
Enters shadow 19:19:14 26° 61° (ENE) 2,246 5.5 -24.1°
